Location: Stamford Observatory
(41.1241°N, 73.5498°W)
Time: 14:22:36
(UTC-04:00)

Daily predictions for brighter satellites

Satellite Brightness Start Highest point End
(mag) Time Altitude Azimuth Time Altitude Azimuth Time Altitude Azimuth
COSMOS 2406 4.3 19:08:36 10° SSE 19:12:55 23° E 19:17:16 10° NE
METEOR-M 4.3 19:09:02 10° SSE 19:14:24 82° WSW 19:19:47 10° NNW
Lacrosse 5 3.7 19:10:11 10° WNW 19:14:41 32° SW 19:19:09 10° S
Cosmos 2292 Rocket 4.0 19:12:28 10° SSW 19:15:36 46° W 19:18:28 10° N
Cosmos 332 Rocket 4.3 19:11:02 10° SSW 19:15:53 68° WNW 19:20:45 10° NNE
Thor Agena Rocket 3.8 19:10:57 10° NNE 19:16:03 50° E 19:21:04 10° S
Cosmos 2369 Rocket 3.1 19:10:51 10° NNW 19:16:21 55° WSW 19:21:47 10° S
NOAA 12 4.1 19:11:36 10° SSE 19:16:49 73° ENE 19:22:05 10° N
Cosmos 1758 Rocket 3.6 19:15:15 10° N 19:19:43 63° E 19:24:11 10° SSE
Cosmos 371 Rocket 3.6 19:15:54 10° SSW 19:20:45 74° WNW 19:25:40 10° NNE
Cosmos 1707 2.9 19:17:26 10° N 19:21:17 50° E 19:25:06 10° SSE
Cosmos 2074 Rocket 4.5 19:18:04 10° SSE 19:23:38 36° E 19:29:14 10° NNE
Cosmos 1726 Rocket 3.5 19:20:39 10° S 19:24:58 68° E 19:29:18 10° NNE
DMSP B5D1-3 4.5 19:20:30 10° NNE 19:25:37 83° ESE 19:30:43 10° SSW
SPOT 3 Rocket 4.3 19:24:32 10° S 19:29:35 59° WSW 19:34:42 10° NNW
Cosmos 1709 Rocket 4.2 19:25:09 10° S 19:31:30 82° W 19:37:56 10° N
BREEZE-M DEB (TANK) 3.6 19:30:46 10° NW 19:32:18 14° N 19:33:33 10° NE
Cosmos 1378 3.1 19:33:11 10° N 19:36:59 71° E 19:40:44 10° SSE
Cosmos 1898 Rocket 4.1 19:32:51 10° NNW 19:37:57 60° WSW 19:43:01 10° S
Cosmos 1544 4.2 19:35:30 10° SE 19:38:23 23° E 19:41:17 10° NE
Cosmos 1271 Rocket 3.9 19:35:01 10° SSW 19:38:38 46° WNW 19:42:20 10° N
Cosmos 2084 3.2 19:35:03 10° SSW 19:39:09 85° SE 19:43:04 10° NE
ATLAS CENTAUR R/B 3.7 19:23:32 10° NW 19:39:32 75° NE 19:44:27 12° SE
Cosmos 1814 Rocket 4.1 19:34:56 10° SSW 19:40:05 83° WNW 19:45:16 10° NNE
Cosmos 990 Rocket 4.0 19:39:07 10° NNW 19:44:18 83° WSW 19:49:26 10° SSE
Cosmos 1340 Rocket 3.6 19:42:57 10° NNW 19:46:57 55° W 19:50:56 10° S
Cosmos 1125 Rocket 4.3 19:43:44 10° N 19:48:31 33° ENE 19:52:05 16° ESE
Milstar 3 Cent rocket 3.9 19:49:15 10° SSW 19:51:40 13° SSE 19:53:42 11° SE
Resurs 01 Rocket 2.3 19:50:31 14° SE 19:53:42 33° ENE 19:57:40 10° N
Cosmos 2228 3.1 19:49:53 10° S 19:54:16 85° W 19:58:37 10° N
Cosmos 1805 4.2 19:51:03 10° SSE 19:54:19 26° E 19:57:35 10° NNE
Envisat 3.7 19:54:46 17° ESE 19:57:58 33° ENE 20:02:28 10° N
USA 81 4.2 19:52:49 10° N 19:58:07 78° W 20:03:23 10° S
GP-B 3.9 19:54:49 10° NNE 19:58:44 30° E 20:01:09 18° SE
Cosmos 2184 Rocket 4.0 19:53:49 10° S 20:00:04 70° E 20:06:24 10° NNE
CZ-2D R/B 3.5 19:57:37 15° SE 20:00:27 45° ENE 20:04:07 10° N
Cosmos 1812 Rocket 4.1 19:59:37 10° SSE 20:03:42 37° E 20:07:49 10° NNE
ISS -1.6 20:02:47 10° S 20:03:32 13° SSE 20:03:32 13° SSE
Cosmos 304 Rocket 3.9 20:02:01 10° SSW 20:06:48 79° WNW 20:11:38 10° NNE
Cosmos 2058 Rocket 3.8 20:03:43 10° SSW 20:07:58 55° W 20:12:17 10° N
USA 186 3.6 20:10:59 13° NNE 20:10:59 13° NNE 20:11:24 10° NNE
Meteor 1-24 Rocket 3.8 20:04:20 10° N 20:10:21 81° E 20:16:08 10° SSE
ATLAS 2AS CENTAUR R/B 4.2 20:05:00 10° NNW 20:11:32 26° NNE 20:15:31 18° ENE
Cosmos 1943 Rocket 4.1 20:08:47 10° NW 20:13:35 30° WSW 20:18:24 10° SSW
Cosmos 841 Rocket 4.1 20:12:34 10° SSW 20:17:38 59° WNW 20:22:43 10° NNE
Meteor 2-19 Rocket 4.4 20:11:45 10° S 20:17:38 57° E 20:23:33 10° NNE
Cosmos 1356 Rocket 3.8 20:13:26 10° NNW 20:17:43 67° W 20:21:59 10° S
SJ-6B 3.5 20:13:51 10° S 20:17:47 56° WSW 20:21:42 10° NNW
Cosmos 1953 3.9 20:22:47 21° NE 20:22:47 21° NE 20:24:27 10° NNE
Cosmos 2327 Rocket 4.4 20:15:24 10° S 20:21:32 88° W 20:27:39 10° N
NOSS 3-1 (A) 4.1 20:13:52 10° NW 20:21:34 88° NE 20:28:17 18° SE
ALOS 4.5 20:20:22 10° SSW 20:24:16 26° W 20:28:11 10° NW
Cosmos 1697 Rocket 4.4 20:24:25 10° NNE 20:27:45 16° NE 20:28:06 16° NE
NOSS 3-1 (C) 4.4 20:23:04 10° NW 20:30:42 66° WSW 20:38:46 11° SSE
Cosmos 540 Rocket 3.5 20:33:11 10° SSW 20:38:17 77° WNW 20:43:25 10° NNE
Cosmos 1900 4.3 20:35:37 10° SSW 20:40:35 59° ESE 20:43:03 29° NE
Cosmos 962 Rocket 4.5 20:37:12 10° S 20:43:25 60° E 20:49:41 10° NNE
MOS 1-B Rocket 3.9 20:46:10 18° SSE 20:50:56 82° WSW 20:56:40 10° NNW
COSMOS 2406 4.0 20:51:17 10° SW 20:56:49 51° WNW 21:02:25 10° NNE
BREEZE M DEB (TANK) 3.8 20:55:55 10° WNW 21:00:22 37° WSW 21:00:22 37° WSW
Cosmos 1758 3.9 21:04:38 54° NW 21:04:38 54° NW 21:08:01 10° N
Spot 2 Rocket 4.1 21:01:55 27° SSW 21:04:29 55° W 21:09:26 10° NNW
Cosmos 2154 Rocket 4.2 20:59:00 10° SSW 21:05:11 68° W 21:11:26 10° N
Meteor 1-21 Rocket 4.1 21:01:27 10° N 21:07:14 88° ENE 21:08:07 66° SSE
Cosmos 2369 4.0 21:06:56 10° NNW 21:11:53 52° NE 21:11:53 52° NE
Cosmos 1939 Rocket 4.1 21:16:00 39° NW 21:16:00 39° NW 21:18:43 10° NNW
Cosmos 2341 Rocket 4.0 21:10:05 13° S 21:15:42 79° W 21:21:57 10° N
Cosmos 1674 4.3 21:12:15 10° NNW 21:14:20 30° NNW 21:14:20 30° NNW
ERS-1 Rocket 4.3 21:31:51 32° N 21:31:51 32° N 21:34:37 10° N
Resurs 01 Rocket 3.8 21:28:06 16° SW 21:30:13 22° W 21:33:40 10° NW
GEOS 3 Rocket 4.3 21:34:02 50° WSW 21:34:02 50° WSW 21:37:58 10° SW
FALCON 9 R/B 3.3 21:32:08 10° WSW 21:34:47 36° SW 21:34:47 36° SW
Cosmos 2218 Rocket 4.5 21:45:54 51° N 21:45:54 51° N 21:50:25 10° N
Cosmos 2285 Rocket 4.2 21:46:04 66° NNW 21:46:04 66° NNW 21:51:42 10° NNE
H-2A R/B 4.0 21:49:43 19° N 21:49:43 19° N 21:51:15 10° N
Cosmos 2278 4.3 21:41:53 10° NNW 21:46:08 52° NNW 21:46:08 52° NNW
ATLAS 2AS CENTAUR R/B 3.0 21:55:45 10° NNW 22:02:57 73° NNW 22:02:57 73° NNW
Cosmos 1697 Rocket 4.1 22:06:49 10° NNW 22:09:50 33° NNW 22:09:50 33° NNW
Cosmos 1980 Rocket 3.9 22:07:58 10° NNW 22:10:25 26° N 22:10:25 26° N
